DW6964 Weather Reports


time (UTC)temp
C
wind
direction
speed
KPH
gust
KPH
rain 1hr
cm
rain 24hr
cm
rain mn
cm
humidity
%
barometer
mb
20260506201515 8 0.0 3.2 0.10 2.79 2.77 94 1005.0
20260506200656 8 236 0.0 4.8 0.08 2.74 2.72 94 1005.2
20260506195515 8 231 1.6 3.2 0.13 2.74 2.69 94 1005.2
20260506194515 8 218 1.6 4.8 0.25 2.72 2.67 94 1005.1
20260506193535 8 216 0.0 4.8 0.38 2.72 2.67 94 1005.1
20260506192515 8 160 0.0 6.4 0.53 2.72 2.67 94 1005.0
20260506191535 8 231 1.6 4.8 0.58 2.72 2.67 95 1005.0
20260506190515 9 231 0.0 3.2 0.61 2.69 2.64 95 1005.0
20260506185515 9 231 0.0 3.2 0.56 2.62 2.57 95 1004.9
20260506184535 9 231 1.6 6.4 0.46 2.46 2.41 95 1004.9
20260506183537 9 230 1.6 4.8 0.36 2.34 2.29 95 1004.9
20260506182517 9 279 1.6 4.8 0.28 2.18 2.13 95 1004.8
20260506181517 10 279 0.0 4.8 0.25 2.13 2.08 95 1004.8
20260506180537 9 0.0 3.2 0.25 2.08 2.03 95 1004.9
20260506175517 10 279 0.0 8.0 0.33 2.06 2.01 94 1004.9
20260506174516 10 256 1.6 4.8 0.36 2.01 1.96 95 1004.9
20260506173516 10 256 1.6 4.8 0.38 1.98 1.93 94 1004.8
20260506172516 10 260 1.6 11.3 0.38 1.91 1.85 94 1005.1
20260506171516 10 292 0.0 3.2 0.43 1.88 1.83 95 1005.0
20260506170516 10 292 0.0 3.2 0.46 1.83 1.78 95 1005.1
20260506165516 10 292 0.0 3.2 0.43 1.73 1.68 95 1005.3
20260506164516 10 292 0.0 1.6 0.41 1.65 1.60 94 1005.4
20260506163537 11 293 0.0 3.2 0.41 1.60 1.55 94 1005.5
20260506162516 11 294 0.0 4.8 0.41 1.52 1.47 94 1005.6
20260506161516 11 294 0.0 4.8 0.38 1.45 1.40 94 1005.8
20260506160516 11 51 0.0 3.2 0.36 1.37 1.32 94 1005.9
20260506155516 12 342 0.0 1.6 0.36 1.30 1.24 94 1006.1
20260506154516 12 305 0.0 3.2 0.38 1.24 1.19 94 1006.1
20260506153536 12 0.0 1.6 0.41 1.19 1.14 95 1006.1
20260506152517 12 305 0.0 3.2 0.41 1.12 1.07 94 1006.1
20260506151536 12 0.0 0.0 0.41 1.07 1.02 95 1006.3
20260506150516 12 305 0.0 1.6 0.43 1.02 0.97 95 1006.6
20260506145516 12 305 0.0 1.6 0.41 0.94 0.89 94 1006.6
20260506144516 12 305 0.0 1.6 0.41 0.86 0.81 94 1006.7
20260506143536 13 305 0.0 3.2 0.36 0.79 0.74 94 1006.9
20260506142536 13 305 0.0 1.6 0.30 0.71 0.66 95 1007.2
20260506141516 13 305 0.0 1.6 0.33 0.66 0.61 95 1007.3
20260506140516 13 305 0.0 3.2 0.28 0.58 0.53 95 1007.0
20260506135536 13 0.0 0.0 0.28 0.53 0.48 95 1006.8
20260506134516 13 0.0 0.0 0.23 0.46 0.41 95 1006.7
20260506133536 13 0.0 0.0 0.25 0.43 0.38 95 1006.8
20260506132516 13 0.0 0.0 0.23 0.41 0.36 95 1006.7
20260506131516 13 0.0 0.0 0.18 0.33 0.28 95 1006.6
20260506130516 13 0.0 0.0 0.15 0.30 0.25 95 1006.8
20260506125536 13 0.0 0.0 0.10 0.25 0.20 95 1007.0
20260506124516 13 0.0 1.6 0.10 0.23 0.18 95 1007.2
20260506123516 13 0.0 0.0 0.05 0.18 0.13 94 1007.3
20260506122515 13 0.0 0.0 0.05 0.18 0.13 94 1007.5
20260506121515 13 0.0 0.0 0.03 0.15 0.10 95 1007.6
20260506120516 13 0.0 0.0 0.03 0.15 0.10 95 1007.4
20260506115536 13 0.0 0.0 0.03 0.15 0.10 94 1007.0
20260506114515 12 0.0 0.0 0.00 0.13 0.08 94 1006.8
20260506113556 12 0.0 0.0 0.00 0.13 0.08 94 1006.8
20260506112515 12 305 0.0 3.2 0.00 0.13 0.08 95 1007.1
20260506111515 12 0.0 0.0 0.00 0.13 0.08 95 1007.1
20260506110515 12 0.0 0.0 0.00 0.13 0.08 95 1007.2
20260506105515 12 0.0 0.0 0.00 0.13 0.08 94 1006.9
20260506104515 12 0.0 0.0 0.00 0.13 0.08 94 1006.8
20260506103535 12 0.0 0.0 0.00 0.13 0.08 94 1006.8
20260506102515 12 0.0 0.0 0.00 0.13 0.08 94 1006.8
20260506101515 12 0.0 1.6 0.00 0.13 0.08 94 1006.3
20260506100515 12 0.0 0.0 0.00 0.13 0.08 94 1006.6
20260506095515 12 0.0 0.0 0.00 0.13 0.08 94 1006.6
20260506094535 12 0.0 0.0 0.00 0.13 0.08 94 1006.6
20260506093515 12 0.0 0.0 0.00 0.13 0.08 94 1006.5
20260506092515 12 0.0 1.6 0.00 0.13 0.08 93 1006.6
20260506091515 12 0.0 0.0 0.00 0.13 0.08 93 1006.7
20260506090515 12 0.0 0.0 0.00 0.13 0.08 93 1006.5
20260506085515 12 0.0 0.0 0.00 0.13 0.08 93 1006.8
20260506084515 12 0.0 0.0 0.00 0.13 0.08 93 1006.8
20260506083515 12 0.0 0.0 0.00 0.13 0.08 92 1007.0
20260506082515 12 0.0 0.0 0.00 0.13 0.08 93 1007.1
20260506081535 13 0.0 0.0 0.00 0.13 0.08 92 1007.1
20260506080514 13 0.0 0.0 0.00 0.13 0.08 93 1007.3
20260506073515 13 0.0 0.0 0.00 0.13 0.08 93 1007.7
20260506072537 13 310 0.0 1.6 0.00 0.13 0.08 93 1007.5
20260506071535 13 310 0.0 1.6 0.00 0.13 0.08 93 1007.6
20260506070516 13 0.0 0.0 0.00 0.13 0.08 93 1007.6
20260506062517 14 0.0 0.0 0.00 0.13 0.08 93 1007.9
20260506061516 14 0.0 0.0 0.00 0.13 0.08 92 1007.8
20260506060516 14 0.0 0.0 0.00 0.13 0.08 92 1007.6
20260506050516 15 0.0 0.0 0.08 0.13 0.08 91 1008.1
20260506044516 15 0.0 0.0 0.05 0.10 0.05 90 1008.5
20260506043516 15 310 0.0 1.6 0.05 0.10 0.05 89 1008.2
20260506042516 15 0.0 1.6 0.03 0.08 0.03 89 1007.9
20260506041516 15 310 0.0 3.2 0.00 0.05 0.00 88 1008.0
20260506040516 15 0.0 0.0 0.03 0.05 0.00 87 1007.9
20260506035515 15 310 0.0 3.2 0.03 0.05 0.05 87 1008.0
20260506034535 15 310 0.0 3.2 0.03 0.05 0.05 87 1008.0
20260506033515 15 310 0.0 1.6 0.03 0.05 0.05 86 1007.8
20260506032535 15 0.0 0.0 0.03 0.05 0.05 86 1007.7
20260506031515 15 0.0 0.0 0.03 0.05 0.05 85 1007.5
20260506030516 16 0.0 0.0 0.00 0.03 0.03 83 1007.4
20260506025517 16 0.0 0.0 0.00 0.03 0.03 83 1007.3
20260506024517 16 0.0 0.0 0.00 0.03 0.03 83 1007.2
20260506023517 16 0.0 0.0 0.00 0.03 0.03 83 1007.3
20260506022516 16 0.0 1.6 0.00 0.03 0.03 83 1007.2
20260506021537 16 0.0 0.0 0.00 0.03 0.03 84 1007.3
20260506020517 16 0.0 1.6 0.00 0.03 0.03 83 1007.0
20260506015516 16 0.0 0.0 0.00 0.03 0.03 84 1007.0
20260506014517 16 310 0.0 1.6 0.00 0.03 0.03 83 1006.9
20260506013517 16 0.0 0.0 0.00 0.03 0.03 84 1006.7
20260506012516 16 0.0 1.6 0.00 0.03 0.03 83 1006.6
20260506011537 16 0.0 0.0 0.00 0.03 0.03 83 1006.6
20260506010537 16 310 0.0 3.2 0.00 0.03 0.03 82 1006.6
20260506005516 16 0.0 1.6 0.00 0.03 0.03 82 1006.4
20260506004537 16 310 0.0 4.8 0.00 0.03 0.03 82 1006.1
20260506003516 16 0.0 1.6 0.00 0.03 0.03 82 1005.9
20260506002516 16 310 0.0 1.6 0.00 0.03 0.03 82 1005.8
20260506001516 16 310 0.0 1.6 0.00 0.03 0.03 81 1005.7
20260506000536 16 0.0 0.0 0.00 0.03 0.03 80 1005.6
20260505235516 17 0.0 0.0 0.00 0.03 0.03 79 1005.7
20260505234516 17 0.0 1.6 0.00 0.03 0.03 76 1005.7
20260505233557 17 310 0.0 1.6 0.00 0.03 0.03 75 1005.6
20260505232516 18 0.0 1.6 0.00 0.03 0.03 73 1005.5
20260505231536 18 310 0.0 1.6 0.00 0.03 0.03 71 1005.4
20260505230556 18 310 0.0 3.2 0.00 0.03 0.03 69 1005.3
20260505225516 19 309 0.0 3.2 0.00 0.03 0.03 66 1005.2
20260505224516 19 301 0.0 9.7 0.00 0.03 0.03 63 1005.4
20260505223516 20 264 3.2 14.5 0.00 0.03 0.03 60 1005.7
20260505222516 20 261 3.2 12.9 0.00 0.03 0.03 60 1005.9
20260505221516 20 279 3.2 12.9 0.00 0.03 0.03 60 1005.7
20260505220516 19 85 1.6 8.0 0.00 0.03 0.03 64 1005.5
20260505215516 20 208 0.0 4.8 0.00 0.03 0.03 63 1005.2
20260505214515 20 208 1.6 3.2 0.00 0.03 0.03 61 1004.7
20260505213516 20 248 0.0 12.9 0.00 0.03 0.03 63 1004.9
20260505212516 20 270 4.8 16.1 0.00 0.03 0.03 68 1005.0
20260505211516 20 278 0.0 3.2 0.00 0.03 0.03 67 1004.7
20260505210556 20 278 0.0 4.8 0.00 0.03 0.03 66 1004.3
20260505205516 20 278 0.0 3.2 0.03 0.03 0.03 65 1003.5
20260505204516 20 203 1.6 6.4 0.03 0.03 0.03 63 1003.4
20260505203515 20 150 1.6 4.8 0.03 0.03 0.03 65 1003.4
20260505202515 19 114 1.6 3.2 0.03 0.03 0.03 72 1003.6